METEOSAT-6 (MOP3) 1 22912C 93073B 08245.00000000 .00000074 00000-0 00000-0 0 2452 2 22912 7.6825 63.2625 0000472 175.2042 169.6645 1.00267060 14 METEOSAT-7 (MTP1) 1 24932C 97049B 08245.00000000 .00000158 00000-0 00000-0 0 2456 2 24932 4.4789 73.1413 0000130 137.3453 187.4496 1.00268232 17 METEOSAT-8 (MSG1) 1 27509C 02040B 08245.00000000 .00000153 00000-0 00000-0 0 2451 2 27509 0.6815 43.8010 0001134 188.5272 117.4046 1.00268573 19 METEOSAT-9 (MSG2) 1 28912C 05049B 08245.00000000 .00000090 00000-0 00000-0 0 2452 2 28912 0.3719 214.5369 0000413 319.5705 166.9219 1.00280002 10